Regional Weather Roundup
Issued by NWS

Home | Current Version | Previous Version | Text Only | Print | Product List | Glossary Off
Versions: 1 2 3 4 5 6 7 8 9 10 11 12 13 14 15 16 17 18 19 20 21 22 23 24 25 26 27 28 29 30 31 32 33 34 35 36 37 38 39 40 41 42 43 44 45 46 47 48 49 50

000
ASUS43 KTOP 050908
RWRKS

WEATHER ROUNDUP FOR KANSAS
NATIONAL WEATHER SERVICE GOODLAND KS
400 AM CDT SUN JUL 05 2015

NOTE:  "FAIR" INDICATES FEW OR NO CLOUDS BELOW 12,000 FEET WITH NO
SIGNIFICANT WEATHER AND/OR OBSTRUCTIONS TO VISIBILITY.

KSZ001>006-013>018-027>032-041>047-051000-
NORTHWEST KANSAS

CITY           SKY/WX    TMP DP  RH WIND       PRES   REMARKS
GOODLAND       CLEAR     71  63  75 S15       29.88F
HAYS           CLOUDY    73  63  68 S13       29.89F
HILL CITY      CLOUDY    77  66  68 S14G22    29.87F
RUSSELL        MOCLDY    74  66  76 S17       29.88F
$$

KSZ061>065-074>080-084>089-051000-
SOUTHWEST KANSAS

CITY           SKY/WX    TMP DP  RH WIND       PRES   REMARKS
DODGE CITY     CLOUDY    72  64  76 S14G22    29.93F
ELKHART          N/A     73  57  57 S9          N/A
GARDEN CITY    MOCLDY    73  65  75 SE13      29.92F
GREAT BEND     MOCLDY    73  64  73 S15G21    29.91F
LIBERAL        CLEAR     72  61  68 S10       29.95S
PRATT          MOCLDY    73  64  73 S13       29.94F
$$

KSZ066>073-081>083-090>101-051000-
SOUTHEAST KANSAS

CITY           SKY/WX    TMP DP  RH WIND       PRES   REMARKS
CHANUTE        CLEAR     70  67  90 SE6       29.97F FOG
COFFEYVILLE    CLEAR     70  68  93 E3        29.95F
HUTCHINSON     PTCLDY    74  67  78 SE9       29.93F
MEDICINE LODGE   N/A     74  69  85 SE7       29.92F
NEWTON         MOCLDY    72  63  73 S9        29.97S
PARSONS        CLEAR     72  69  90 CALM      29.97F
WICHITA INTL   PTCLDY    75  68  78 S8        29.93F
WICHITA JABRA  MOCLDY    73  68  84 S6        29.94F
WICHITA MCCONL PTCLDY    74  68  81 SE8       29.94F
WINFIELD       PTCLDY    75  70  84 SE6       29.95F
$$

KSZ007>012-019>026-033>040-048>060-102>105-051000-
NORTHEAST KANSAS

CITY           SKY/WX    TMP DP  RH WIND       PRES   REMARKS
CONCORDIA      MOCLDY    72  65  78 SE12      29.92F
EMPORIA        PTCLDY    69  66  90 SE8       29.96F
LAWRENCE       CLEAR     66  63  90 E5        29.97F FOG
MANHATTAN      CLEAR     72  66  81 S3        29.93F
MARYSVILLE     CLEAR     70  64  83 S7        29.93F
OLATHE IND     CLEAR     69  65  86 SE8       29.98F
OLATHE EXE     CLEAR     67  64  90 SE6       29.97F
SALINA         MOCLDY    77  65  66 S14       29.91F
TOPEKA BILLARD CLEAR     69  65  86 SE3       29.95F
TOPEKA FORBES  CLEAR     70  65  84 SE7       29.95F
$$



USA.gov is the U.S. government's official web portal to all federal, state and local government web resources and services.